Weather History for Anaktuvuk Pass, AK

Change the Weather History Date:

Friday, August 30, 2013

  Actual Average Record
Temperature  
Mean Temperature 32 °F -  
Max Temperature 42 °F 46 °F 62 °F (2001)
Min Temperature 21 °F 32 °F 21 °F (2013)
Degree Days  
Heating Degree Days 34    
Moisture  
Dew Point 23 °F    
Average Humidity 71    
Maximum Humidity 86    
Minimum Humidity 39    
Precipitation  
Precipitation 0.01 in - - ()
Sea Level Pressure  
Sea Level Pressure 29.78 in    
Wind  
Wind Speed 8 mph (NE)    
Max Wind Speed 17 mph    
Max Gust Speed 23 mph    
Visibility 8 miles    
Events      
Averages and records for this station are not official NWS values.
T = Trace of Precipitation, MM = Missing Value Source: NWS Daily Summary

Daily Weather History Graph

Daily Weather History Graph

Search for Another Location

Airport:

Trip Planner

Search our weather history database for the weather conditions in past years. The results will help you decide how hot, cold, wet, or windy it might be!

Date:

Astronomy

Aug. 30, 2013 Rise Set
Actual Time 6:26 AM AKDT 9:45 PM AKDT
Civil Twilight 5:19 AM AKDT 10:52 PM AKDT
Nautical Twilight 3:18 AM AKDT 12:46 AM AKDT
Astronomical Twilight Sun does not rise Sun does not rise
Moon No Moon Rise 7:54 PM AKDT (8/30)
Length of Visible Light 17h 32m
Length of Day
15h 18m
Waning Crescent, 28% of the Moon is Illuminated
Aug 30
Waning Crescent
Sep 5
New
Sep 12
First Quarter
Sep 19
Full
Sep 26
Last Quarter

Hourly Weather History & Observations

Time (AKDT) Temp. Windchill Dew Point Humidity Pressure Visibility Wind Dir Wind Speed Gust Speed Precip Events Conditions
12:16 AM 35.6 °F 28.0 °F 28.4 °F 75% 29.74 in 10.0 mi ENE 10.4 mph - N/A   Overcast
12:36 AM 35.6 °F 27.5 °F 28.4 °F 75% 29.74 in 10.0 mi NE 11.5 mph - N/A   Overcast
12:56 AM 35.6 °F 27.5 °F 28.4 °F 75% 29.74 in 10.0 mi NE 11.5 mph - N/A   Overcast
1:16 AM 33.8 °F 25.8 °F 28.4 °F 81% 29.75 in 9.0 mi ENE 10.4 mph - N/A   Overcast
1:36 AM 33.8 °F 27.0 °F 26.6 °F 75% 29.75 in 9.0 mi NE 8.1 mph - N/A   Overcast
1:56 AM 33.8 °F 25.3 °F 26.6 °F 75% 29.75 in 10.0 mi ENE 11.5 mph - N/A   Overcast
2:16 AM 33.8 °F 25.3 °F 26.6 °F 75% 29.74 in 6.0 mi ENE 11.5 mph - N/A   Overcast
2:36 AM 33.8 °F 26.4 °F 26.6 °F 75% 29.75 in 10.0 mi NE 9.2 mph - N/A   Overcast
2:56 AM 33.8 °F 27.7 °F 26.6 °F 75% 29.76 in 8.0 mi NE 6.9 mph - N/A   Mostly Cloudy
3:16 AM 33.8 °F 26.4 °F 26.6 °F 75% 29.76 in 7.0 mi NE 9.2 mph - N/A   Overcast
3:36 AM 32.0 °F 25.6 °F 26.6 °F 80% 29.76 in 7.0 mi NE 6.9 mph - N/A   Overcast
3:56 AM 33.8 °F 26.4 °F 26.6 °F 75% 29.76 in 2.5 mi ENE 9.2 mph - N/A   Overcast
4:16 AM 32.0 °F 25.6 °F 26.6 °F 80% 29.76 in 10.0 mi NE 6.9 mph - N/A   Overcast
4:36 AM 32.0 °F 25.6 °F 26.6 °F 80% 29.76 in 10.0 mi NE 6.9 mph - N/A   Mostly Cloudy
4:56 AM 32.0 °F 25.6 °F 26.6 °F 80% 29.76 in 10.0 mi ENE 6.9 mph - N/A   Mostly Cloudy
5:16 AM 32.0 °F 25.6 °F 26.6 °F 80% 29.76 in 10.0 mi NE 6.9 mph - N/A   Scattered Clouds
5:36 AM 30.2 °F 23.4 °F 26.6 °F 86% 29.76 in 9.0 mi ENE 6.9 mph - N/A   Mostly Cloudy
5:56 AM 30.2 °F 23.4 °F 26.6 °F 86% 29.76 in 10.0 mi NE 6.9 mph - N/A   Overcast
6:16 AM 30.2 °F 24.3 °F 24.8 °F 80% 29.76 in 10.0 mi NE 5.8 mph - N/A   Overcast
6:36 AM 30.2 °F 23.4 °F 24.8 °F 80% 29.76 in 10.0 mi NE 6.9 mph - N/A   Overcast
6:56 AM 30.2 °F 26.7 °F 24.8 °F 80% 29.76 in 10.0 mi North 3.5 mph - N/A   Overcast
7:16 AM 30.2 °F 26.7 °F 24.8 °F 80% 29.76 in 8.0 mi NNW 3.5 mph - N/A   Overcast
7:36 AM 30.2 °F 26.7 °F 24.8 °F 80% 29.76 in 1.5 mi NNE 3.5 mph - N/A   Overcast
7:56 AM 30.2 °F 25.4 °F 24.8 °F 80% 29.76 in 1.0 mi NE 4.6 mph - N/A   Overcast
8:16 AM 30.2 °F 26.7 °F 24.8 °F 80% 29.77 in 7.0 mi NE 3.5 mph - N/A   Overcast
8:36 AM 30.2 °F - 24.8 °F 80% 29.77 in 7.0 mi Calm Calm - N/A   Overcast
8:56 AM 30.2 °F - 24.8 °F 80% 29.77 in 5.0 mi Calm Calm - N/A   Overcast
9:16 AM 30.2 °F - 26.6 °F 86% 29.77 in 9.0 mi Calm Calm - N/A   Overcast
9:36 AM 32.0 °F - 26.6 °F 80% 29.77 in 10.0 mi Calm Calm - N/A   Overcast
9:56 AM 32.0 °F - 26.6 °F 80% 29.77 in 8.0 mi Calm Calm - N/A   Mostly Cloudy
10:16 AM 33.8 °F 29.6 °F 26.6 °F 75% 29.76 in 10.0 mi ENE 4.6 mph - N/A   Scattered Clouds
10:36 AM 35.6 °F 28.6 °F 26.6 °F 70% 29.76 in 10.0 mi SSW 9.2 mph - N/A   Partly Cloudy
10:56 AM 37.4 °F 29.8 °F 26.6 °F 65% 29.75 in 10.0 mi South 11.5 mph - N/A   Clear
11:16 AM 37.4 °F 30.8 °F 24.8 °F 60% 29.75 in 10.0 mi South 9.2 mph - N/A   Clear
11:36 AM 39.2 °F 32.0 °F 24.8 °F 56% 29.75 in 10.0 mi SSW 11.5 mph - N/A   Clear
11:56 AM 39.2 °F 33.0 °F 23.0 °F 52% 29.75 in 10.0 mi SSW 9.2 mph - N/A   Mostly Cloudy
12:16 PM 39.2 °F 32.5 °F 21.2 °F 49% 29.75 in 10.0 mi SW 10.4 mph - N/A   Overcast
12:36 PM 41.0 °F 33.1 °F 19.4 °F 42% 29.74 in 10.0 mi SSW 15.0 mph 18.4 mph N/A   Mostly Cloudy
12:56 PM 42.8 °F 36.6 °F 19.4 °F 39% 29.74 in 10.0 mi South 11.5 mph 19.6 mph N/A   Scattered Clouds
1:16 PM 41.0 °F 35.2 °F 17.6 °F 39% 29.74 in 10.0 mi SSW 9.2 mph - N/A   Overcast
1:36 PM 39.2 °F 32.5 °F 17.6 °F 42% 29.74 in 9.0 mi WSW 10.4 mph - N/A   Overcast
1:56 PM 39.2 °F 32.5 °F 19.4 °F 45% 29.74 in 9.0 mi WSW 10.4 mph - N/A   Overcast
2:16 PM 39.2 °F 31.2 °F 17.6 °F 42% 29.74 in 10.0 mi WSW 13.8 mph 23.0 mph N/A   Mostly Cloudy
2:36 PM 39.2 °F 32.0 °F 19.4 °F 45% 29.75 in 10.0 mi SW 11.5 mph 20.7 mph N/A   Overcast
2:56 PM 39.2 °F 34.2 °F 19.4 °F 45% 29.74 in 10.0 mi SSW 6.9 mph - N/A   Overcast
3:16 PM 39.2 °F 30.8 °F 19.4 °F 45% 29.75 in 10.0 mi SW 15.0 mph 23.0 mph N/A   Overcast
3:36 PM 37.4 °F 29.8 °F 19.4 °F 48% 29.76 in 3.0 mi SW 11.5 mph 19.6 mph N/A   Overcast
3:56 PM 33.8 °F 28.6 °F 21.2 °F 60% 29.78 in 4.0 mi NE 5.8 mph - N/A   Overcast
4:16 PM 33.8 °F 23.5 °F 24.8 °F 70% 29.78 in 4.0 mi NE 16.1 mph 20.7 mph N/A   Overcast
4:36 PM 30.2 °F 18.5 °F 23.0 °F 75% 29.78 in 7.0 mi ENE 17.3 mph - N/A   Mostly Cloudy
4:56 PM 30.2 °F 18.9 °F 24.8 °F 80% 29.79 in 9.0 mi NE 16.1 mph - N/A   Overcast
5:16 PM 30.2 °F 19.8 °F 23.0 °F 75% 29.80 in 1.5 mi NE 13.8 mph 21.9 mph N/A   Overcast
5:36 PM 28.4 °F 18.0 °F 23.0 °F 80% 29.81 in 0.2 mi NE 12.7 mph - N/A   Overcast
5:56 PM 28.4 °F 17.5 °F 21.2 °F 74% 29.83 in 0.5 mi ENE 13.8 mph 19.6 mph N/A   Overcast
6:16 PM 28.4 °F 19.1 °F 21.2 °F 74% 29.83 in 0.2 mi ENE 10.4 mph - N/A   Overcast
6:36 PM 28.4 °F 18.0 °F 21.2 °F 74% 29.84 in 0.2 mi ENE 12.7 mph - N/A   Overcast
6:56 PM 28.4 °F 19.1 °F 21.2 °F 74% 29.85 in 0.2 mi NE 10.4 mph - N/A   Overcast
7:16 PM 28.4 °F 19.1 °F 21.2 °F 74% 29.84 in 0.5 mi NE 10.4 mph - 0.01 in   Overcast
7:36 PM 28.4 °F 19.7 °F 21.2 °F 74% 29.85 in 3.0 mi NE 9.2 mph - 0.01 in   Mostly Cloudy
7:56 PM 26.6 °F 18.2 °F 19.4 °F 74% 29.85 in 10.0 mi NE 8.1 mph - 0.01 in   Scattered Clouds
8:16 PM 26.6 °F 22.6 °F 19.4 °F 74% 29.85 in 10.0 mi North 3.5 mph - N/A   Partly Cloudy
8:36 PM 24.8 °F 20.5 °F 19.4 °F 80% 29.85 in 10.0 mi North 3.5 mph - N/A   Partly Cloudy
8:56 PM 24.8 °F - 17.6 °F 74% 29.85 in 10.0 mi Calm Calm - N/A   Partly Cloudy
9:16 PM 21.2 °F - 15.8 °F 80% 29.86 in 10.0 mi Calm Calm - N/A   Clear
9:36 PM 21.2 °F - 14.0 °F 74% 29.86 in 10.0 mi Calm Calm - N/A   Partly Cloudy
9:56 PM 21.2 °F - 14.0 °F 74% 29.86 in 10.0 mi Calm Calm - N/A   Mostly Cloudy
10:16 PM 21.2 °F - 15.8 °F 80% 29.87 in 10.0 mi Calm Calm - N/A   Mostly Cloudy
10:36 PM 21.2 °F - 15.8 °F 80% 29.87 in 10.0 mi Calm Calm - N/A   Overcast
10:56 PM 21.2 °F - 15.8 °F 80% 29.88 in 10.0 mi Calm Calm - N/A   Overcast
11:16 PM 23.0 °F - 17.6 °F 80% 29.88 in 10.0 mi Calm Calm - N/A   Overcast
11:36 PM 23.0 °F - 17.6 °F 80% 29.89 in 10.0 mi Calm Calm - N/A   Overcast
11:56 PM 24.8 °F - 17.6 °F 74% 29.90 in 9.0 mi Calm Calm - N/A   Overcast